Regional Weather Roundup
Issued by NWS

Home | Current Version | Previous Version | Graphics & Text | Print | Product List | Glossary On
Versions: 1 2 3 4 5 6 7 8 9 10 11 12 13 14 15 16 17 18 19 20 21 22 23 24 25 26 27 28 29 30 31 32 33 34 35 36 37 38 39 40 41 42 43 44 45 46 47 48 49 50
000
ASUS43 KLMK 201210
RWRKY
KENTUCKY REGIONAL WEATHER ROUNDUP
NATIONAL WEATHER SERVICE LOUISVILLE KY
700 AM EST SAT JAN 20 2018

NOTE "FAIR" INDICATES FEW OR NO CLOUDS BELOW 12,000 FEET
WITH NO SIGNIFICANT WEATHER AND/OR OBSTRUCTIONS TO VISIBILITY.

KYZ001>023-026-027-061>063-070>075-201300-
WESTERN AND SOUTH CENTRAL KENTUCKY

CITY           SKY/WX    TMP DP  RH WIND       PRES   REMARKS
PADUCAH        FAIR      37  19  48 SW5       30.13R WCI  33
HENDERSON      FAIR      38  19  46 SW13      30.11R WCI  30
OWENSBORO      FAIR      35  21  56 S9        30.12S WCI  28
HOPKINSVILLE   FAIR      41  21  44 S6        30.14R
BOWLING GREEN  CLOUDY    40  29  64 S5        30.17R
GLASGOW        CLOUDY    41  28  60 S6        30.17R
$$

KYZ024-025-028>034-038-045-046-053-201300-
NORTH CENTRAL KENTUCKY

CITY           SKY/WX    TMP DP  RH WIND       PRES   REMARKS
LOUISVILLE/SDF FAIR      41  22  46 S8        30.11R
LOUISVILLE/LOU FAIR      38  24  57 S8        30.12R WCI  32
FORT KNOX      PTCLDY    39  22  52 SW8       30.12S WCI  33
$$

KYZ035>037-039>044-047>052-055>060-089>105-201300-
NORTHEAST KENTUCKY

CITY           SKY/WX    TMP DP  RH WIND       PRES   REMARKS
LEXINGTON      CLOUDY    41  27  57 SW12      30.12R
COVINGTON      FAIR      33  25  72 S10       30.06R WCI  25
FRANKFORT      MOCLDY    40  24  53 S9        30.10R WCI  34
$$

KYZ054-064>069-076>088-106>120-201300-
SOUTHEAST KENTUCKY

CITY           SKY/WX    TMP DP  RH WIND       PRES   REMARKS
JACKSON        CLOUDY    43  32  65 SW5       30.15R
LONDON         CLOUDY    44  31  60 S7        30.17S
SOMERSET       CLOUDY    37  28  70 S7        30.19R WCI  32
MIDDLESBORO    CLOUDY    32  28  86 CALM      30.25R
MONTICELLO     CLOUDY    45  33  63 W13       30.20R
$$





USA.gov is the U.S. government's official web portal to all federal, state and local government web resources and services.